Location: Melbourne
(37.8170°S, 144.9670°E)
Time: 01:16:19
(UTC+11:00)

Explorer 11/Cluster Stage 4 - Visible Passes

Search period start: 26 January 2015 00:00
Search period end: 05 February 2015 00:00
Orbit: 468 x 1277 km, 28.8° (Epoch: 23 January)

Date Brightness Start Highest point End Pass type
(mag) Time Alt. Az. Time Alt. Az. Time Alt. Az.
26 Jan 9.4 00:08:05 10° WNW 00:08:57 11° NW 00:08:57 11° NW visible
26 Jan 8.6 22:08:19 10° WNW 22:15:14 29° NNW 22:19:06 20° NNE visible
27 Jan 9.5 00:01:24 10° NW 00:01:25 10° NW 00:01:25 10° NW visible
27 Jan 8.8 22:00:38 10° WNW 22:07:15 26° NNW 22:11:36 17° NNE visible
28 Jan 8.9 21:53:02 10° WNW 21:59:16 23° NNW 22:04:06 14° NNE visible
29 Jan 9.1 21:45:33 10° WNW 21:51:17 20° NNW 21:56:40 11° NNE visible
30 Jan 9.2 21:38:13 10° WNW 21:43:17 17° NNW 21:48:14 10° N visible
31 Jan 9.4 21:31:07 10° WNW 21:35:20 15° NNW 21:39:21 10° N visible
01 Feb 9.5 21:24:31 10° NW 21:27:23 12° NNW 21:29:56 10° N visible
